Cork, Ireland

9:38 AM GMT on February 21, 2018 (GMT +0000)
Cork

Weather History for EICK - December, 2011

Change the Weather History Date:

Saturday, December 3, 2011

  Actual Average Record
Temperature  
Mean Temperature 47 °F -  
Max Temperature 50 °F 47 °F 51 °F (1996)
Min Temperature 44 °F 38 °F 24 °F (2010)
Degree Days  
Heating Degree Days 18    
Moisture  
Dew Point 44 °F    
Average Humidity 87    
Maximum Humidity 100    
Minimum Humidity 75    
Precipitation  
Precipitation 0.01 in 0.18 in - ()
Sea Level Pressure  
Sea Level Pressure 29.70 in    
Wind  
Wind Speed 13 mph ()    
Max Wind Speed 24 mph    
Max Gust Speed 36 mph    
Visibility 6.9 miles    
Events Rain    
Averages and records for this station are not official NWS values.
T = Trace of Precipitation, MM = Missing Value Source: Averaged Metar Reports

Daily Weather History Graph

Daily Weather History Graph

Search for Another Location

Airport or City:

Trip Planner

Search our weather history database for the weather conditions in past years. The results will help you decide how hot, cold, wet, or windy it might be!

Date:

Astronomy

Dec. 03, 2011 Rise Set
Actual Time 8:21 AM GMT 4:25 PM GMT
Civil Twilight 7:41 AM GMT 5:05 PM GMT
Nautical Twilight 6:58 AM GMT 5:48 PM GMT
Astronomical Twilight 6:18 AM GMT 6:28 PM GMT
Moon 1:03 PM GMT (12/3) 12:53 AM GMT (12/3)
Length of Visible Light 9h 24m
Length of Day
8h 04m
First Quarter, 60% of the Moon is Illuminated
Dec 3
First Quarter
Dec 10
Full
Dec 18
Last Quarter
Dec 24
New
Jan 1
First Quarter

Hourly Weather History & Observations

Time (GMT) Temp. Windchill Dew Point Humidity Pressure Visibility Wind Dir Wind Speed Gust Speed Precip Events Conditions
12:00 AM 51 °F - 48 °F 86% 29.67 in 16 mi WSW 11.2 mph - -   Partly Cloudy
12:00 AM 50.0 °F - 48.2 °F 94% 29.65 in 6.2 mi WSW 11.5 mph - N/A   Mostly Cloudy
12:30 AM 50.0 °F - 48.2 °F 94% 29.65 in 3.1 mi West 17.3 mph - N/A Rain Light Rain Showers
1:00 AM 50.0 °F - 46.4 °F 87% 29.65 in 6.2 mi West 19.6 mph - N/A   Partly Cloudy
1:30 AM 50.0 °F - 48.2 °F 94% 29.62 in 6.2 mi West 17.3 mph - N/A   Mostly Cloudy
2:00 AM 51.8 °F - 44.6 °F 76% 29.62 in 6.2 mi WNW 24.2 mph 35.7 mph N/A   Scattered Clouds
2:30 AM 50.0 °F - 44.6 °F 82% 29.65 in 6.2 mi WNW 23.0 mph 34.5 mph N/A   Mostly Cloudy
3:00 AM 50.0 °F - 44.6 °F 82% 29.65 in 6.2 mi WNW 15.0 mph - N/A   Mostly Cloudy
3:30 AM 50.0 °F - 44.6 °F 82% 29.65 in 6.2 mi WNW 19.6 mph - N/A   Mostly Cloudy
4:00 AM 50.0 °F - 42.8 °F 76% 29.65 in 6.2 mi WNW 24.2 mph - N/A   Partly Cloudy
4:30 AM 48.2 °F - 42.8 °F 82% 29.65 in 6.2 mi WNW 16.1 mph - N/A   Scattered Clouds
5:00 AM 46.4 °F 40.4 °F 44.6 °F 93% 29.65 in 6.2 mi WNW 13.8 mph - N/A   Mostly Cloudy
5:30 AM 46.4 °F 42.4 °F 44.6 °F 93% 29.68 in 6.2 mi West 8.1 mph - N/A   Mostly Cloudy
6:00 AM 47 °F - 42 °F 79% 29.70 in 16 mi West 17.9 mph - -   Partly Cloudy
6:00 AM 46.4 °F 39.5 °F 42.8 °F 87% 29.68 in 6.2 mi West 17.3 mph - N/A   Mostly Cloudy
6:30 AM 46.4 °F 40.1 °F 41.0 °F 81% 29.68 in 6.2 mi WNW 15.0 mph - N/A   Scattered Clouds
7:00 AM 46.4 °F 40.1 °F 42.8 °F 87% 29.68 in 6.2 mi West 15.0 mph - N/A   Mostly Cloudy
7:30 AM 48.2 °F - 41.0 °F 76% 29.68 in 6.2 mi WNW 18.4 mph - N/A   Partly Cloudy
8:00 AM 48.2 °F - 41.0 °F 76% 29.68 in 6.2 mi WNW 21.9 mph - N/A   Partly Cloudy
8:30 AM 48.2 °F - 41.0 °F 76% 29.68 in 6.2 mi WNW 19.6 mph - N/A   Scattered Clouds
9:00 AM 46.4 °F 42.4 °F 41.0 °F 81% 29.71 in 6.2 mi West 8.1 mph - N/A   Partly Cloudy
9:30 AM 44.6 °F 40.2 °F 42.8 °F 93% 29.71 in 6.2 mi SSW 8.1 mph - N/A   Scattered Clouds
10:00 AM 46.4 °F 41.5 °F 42.8 °F 87% 29.71 in 6.2 mi WSW 10.4 mph - N/A   Partly Cloudy
10:30 AM 48.2 °F - 42.8 °F 82% 29.71 in 6.2 mi WSW 9.2 mph - N/A   Partly Cloudy
11:00 AM 48.2 °F - 42.8 °F 82% 29.74 in 6.2 mi WSW 12.7 mph - N/A   Scattered Clouds
11:30 AM 48.2 °F - 42.8 °F 82% 29.71 in 6.2 mi WSW 9.2 mph - N/A   Partly Cloudy
12:00 PM 49 °F - 44 °F 75% 29.73 in 16 mi West 8.9 mph - -   Partly Cloudy
12:00 PM 48.2 °F - 42.8 °F 82% 29.71 in 6.2 mi West 9.2 mph - N/A   Scattered Clouds
12:30 PM 50.0 °F - 42.8 °F 76% 29.71 in 6.2 mi West 13.8 mph - N/A   Scattered Clouds
1:00 PM 50.0 °F - 44.6 °F 82% 29.71 in 6.2 mi WSW 11.5 mph - N/A   Mostly Cloudy
1:30 PM 48.2 °F - 44.6 °F 87% 29.71 in 6.2 mi WSW 10.4 mph - N/A   Mostly Cloudy
2:00 PM 48.2 °F - 44.6 °F 87% 29.71 in 6.2 mi West 8.1 mph - N/A   Mostly Cloudy
2:30 PM 48.2 °F - 44.6 °F 87% 29.71 in 5.6 mi WNW 8.1 mph - N/A Rain Light Rain
3:00 PM 46.4 °F 40.7 °F 44.6 °F 93% 29.71 in 6.2 mi West 12.7 mph - N/A   Mostly Cloudy
3:30 PM 48.2 °F - 42.8 °F 82% 29.68 in 6.2 mi WNW 16.1 mph - N/A   Mostly Cloudy
4:00 PM 48.2 °F - 42.8 °F 82% 29.71 in 6.2 mi WNW 12.7 mph - N/A   Scattered Clouds
4:30 PM 46.4 °F 39.2 °F 44.6 °F 93% 29.71 in 6.2 mi NW 18.4 mph - N/A   Scattered Clouds
5:00 PM 46.4 °F 40.1 °F 42.8 °F 87% 29.71 in 6.2 mi WNW 15.0 mph - N/A   Mostly Cloudy
5:30 PM 46.4 °F 42.4 °F 42.8 °F 87% 29.71 in 6.2 mi West 8.1 mph - N/A   Mostly Cloudy
6:00 PM 45 °F - 42 °F 87% 29.75 in 16 mi SW 4.5 mph - -   Partly Cloudy
6:00 PM 44.6 °F 42.2 °F 42.8 °F 93% 29.71 in 6.2 mi SW 4.6 mph - N/A   Mostly Cloudy
6:30 PM 44.6 °F 40.2 °F 42.8 °F 93% 29.71 in 6.2 mi West 8.1 mph - N/A   Mostly Cloudy
7:00 PM 46.4 °F 41.5 °F 42.8 °F 87% 29.74 in 6.2 mi WNW 10.4 mph - N/A Rain Light Rain
7:30 PM 44.6 °F 40.2 °F 44.6 °F 100% 29.74 in 6.2 mi WNW 8.1 mph - N/A   Mostly Cloudy
8:00 PM 44.6 °F 41.4 °F 42.8 °F 93% 29.74 in 6.2 mi WSW 5.8 mph - N/A   Mostly Cloudy
8:30 PM 44.6 °F 41.4 °F 44.6 °F 100% 29.74 in 6.2 mi West 5.8 mph - N/A   Mostly Cloudy
9:00 PM 44.6 °F 39.7 °F 44.6 °F 100% 29.74 in 6.2 mi West 9.2 mph - N/A   Mostly Cloudy
9:30 PM 44.6 °F 40.2 °F 42.8 °F 93% 29.74 in 6.2 mi WSW 8.1 mph - N/A   Scattered Clouds
10:00 PM 44.6 °F 40.2 °F 42.8 °F 93% 29.74 in 6.2 mi WSW 8.1 mph - N/A   Mostly Cloudy
10:30 PM 44.6 °F 39.2 °F 42.8 °F 93% 29.74 in 6.2 mi WSW 10.4 mph - N/A   Mostly Cloudy
11:00 PM 44.6 °F 39.7 °F 42.8 °F 93% 29.74 in 6.2 mi WSW 9.2 mph - N/A   Mostly Cloudy
11:30 PM 44.6 °F 39.2 °F 41.0 °F 87% 29.71 in 6.2 mi WSW 10.4 mph - N/A   Mostly Cloudy